Location: Namasale
(1.5000°N, 32.6167°E)
Time: 09:54:27
(UTC+00:00)

Courier 1B - Pass Details

Date: 23 April 2021
Orbit: 962 x 1209 km, 28.3° (Epoch: 15 May)

Event Time Altitude Azimuth Distance (km) Brightness Sun altitude
Rises 14:50:33 0° 320° (NW) 3,625 11.4 14.3°
Reaches altitude 10° 14:53:39 10° 333° (NNW) 2,688 10.5 13.5°
Maximum altitude 14:58:52 25° 27° (NNE) 1,848 8.9 12.3°
Drops below altitude 10° 15:04:14 10° 81° (E) 2,773 9.4 11.0°
Sets 15:07:28 0° 93° (E) 3,764 9.9 10.2°
